Year,Month,Day,Hour,Minute,Value (Times are PST for temperature in C)
2013,03,21,00,00,4.30
2013,03,21,00,01,4.30
2013,03,21,00,02,4.30
2013,03,21,00,03,4.30
2013,03,21,00,04,4.30
2013,03,21,00,05,4.30
2013,03,21,00,06,4.30
2013,03,21,00,07,4.30
2013,03,21,00,08,4.30
2013,03,21,00,09,4.30
2013,03,21,00,10,4.20
2013,03,21,00,11,4.30
2013,03,21,00,12,4.20
2013,03,21,00,13,4.30
2013,03,21,00,14,4.20
2013,03,21,00,15,4.20
2013,03,21,00,16,4.20
2013,03,21,00,17,4.20
2013,03,21,00,18,4.20
2013,03,21,00,19,4.20
2013,03,21,00,20,4.20
2013,03,21,00,21,4.20
2013,03,21,00,22,4.20
2013,03,21,00,23,4.20
2013,03,21,00,24,4.30
2013,03,21,00,25,4.30
2013,03,21,00,26,4.30
2013,03,21,00,27,4.30
2013,03,21,00,28,4.30
2013,03,21,00,29,4.30
2013,03,21,00,30,4.30
2013,03,21,00,31,4.30
2013,03,21,00,32,4.30
2013,03,21,00,33,4.30
2013,03,21,00,34,4.30
2013,03,21,00,35,4.30
2013,03,21,00,36,4.20
2013,03,21,00,37,4.20
2013,03,21,00,38,4.20
2013,03,21,00,39,4.20
2013,03,21,00,40,4.20
2013,03,21,00,41,4.20
2013,03,21,00,42,4.20
2013,03,21,00,43,4.20
2013,03,21,00,44,4.20
2013,03,21,00,45,4.20
2013,03,21,00,46,4.20
2013,03,21,00,47,4.20
2013,03,21,00,48,4.10
2013,03,21,00,49,4.10
2013,03,21,00,50,4.10
2013,03,21,00,51,4.10
2013,03,21,00,52,4.10
2013,03,21,00,53,4.10
2013,03,21,00,54,4.10
2013,03,21,00,55,4.10
2013,03,21,00,56,4.00
2013,03,21,00,57,4.00
2013,03,21,00,58,4.00
2013,03,21,00,59,4.00
2013,03,21,01,00,4.00
2013,03,21,01,01,3.90
2013,03,21,01,02,4.00
2013,03,21,01,03,4.00
2013,03,21,01,04,4.00
2013,03,21,01,05,4.00
2013,03,21,01,06,4.00
2013,03,21,01,07,4.00
2013,03,21,01,08,4.00
2013,03,21,01,09,4.00
2013,03,21,01,10,4.00
2013,03,21,01,11,4.00
2013,03,21,01,12,4.00
2013,03,21,01,13,4.00
2013,03,21,01,14,4.00
2013,03,21,01,15,4.00
2013,03,21,01,16,4.00
2013,03,21,01,17,4.00
2013,03,21,01,18,4.00
2013,03,21,01,19,4.00
2013,03,21,01,20,4.00
2013,03,21,01,21,4.00
2013,03,21,01,22,4.00
2013,03,21,01,23,4.00
2013,03,21,01,24,4.00
2013,03,21,01,25,4.00
2013,03,21,01,26,4.00
2013,03,21,01,27,4.00
2013,03,21,01,28,4.00
2013,03,21,01,29,4.00
2013,03,21,01,30,4.00
2013,03,21,01,31,4.00
2013,03,21,01,32,4.00
2013,03,21,01,33,4.00
2013,03,21,01,34,4.00
2013,03,21,01,35,4.00
2013,03,21,01,36,4.00
2013,03,21,01,37,4.00
2013,03,21,01,38,3.90
2013,03,21,01,39,4.00
2013,03,21,01,40,4.00
2013,03,21,01,41,4.00
2013,03,21,01,42,4.00
2013,03,21,01,43,4.00
2013,03,21,01,44,4.00
2013,03,21,01,45,3.90
2013,03,21,01,46,3.90
2013,03,21,01,47,3.90
2013,03,21,01,48,4.00
2013,03,21,01,49,3.90
2013,03,21,01,50,3.90
2013,03,21,01,51,3.80
2013,03,21,01,52,3.80
2013,03,21,01,53,3.60
2013,03,21,01,54,3.50
2013,03,21,01,55,3.40
2013,03,21,01,56,3.30
2013,03,21,01,57,3.20
2013,03,21,01,58,3.10
2013,03,21,01,59,3.00
2013,03,21,02,00,2.90
2013,03,21,02,01,2.90
2013,03,21,02,02,2.90
2013,03,21,02,03,2.90
2013,03,21,02,04,2.90
2013,03,21,02,05,2.90
2013,03,21,02,06,2.90
2013,03,21,02,07,2.90
2013,03,21,02,08,2.90
2013,03,21,02,09,2.90
2013,03,21,02,10,2.90
2013,03,21,02,11,2.90
2013,03,21,02,12,2.90
2013,03,21,02,13,2.90
2013,03,21,02,14,3.00
2013,03,21,02,15,3.00
2013,03,21,02,16,3.00
2013,03,21,02,17,3.10
2013,03,21,02,18,3.10
2013,03,21,02,19,3.10
2013,03,21,02,20,3.10
2013,03,21,02,21,3.10
2013,03,21,02,22,3.10
2013,03,21,02,23,3.10
2013,03,21,02,24,3.10
2013,03,21,02,25,3.10
2013,03,21,02,26,3.10
2013,03,21,02,27,3.20
2013,03,21,02,28,3.20
2013,03,21,02,29,3.20
2013,03,21,02,30,3.20
2013,03,21,02,31,3.20
2013,03,21,02,32,3.20
2013,03,21,02,33,3.30
2013,03,21,02,34,3.30
2013,03,21,02,35,3.30
2013,03,21,02,36,3.30
2013,03,21,02,37,3.30
2013,03,21,02,38,3.30
2013,03,21,02,39,3.30
2013,03,21,02,40,3.30
2013,03,21,02,41,3.30
2013,03,21,02,42,3.30
2013,03,21,02,43,3.40
2013,03,21,02,44,3.40
2013,03,21,02,45,3.40
2013,03,21,02,46,3.40
2013,03,21,02,47,3.40
2013,03,21,02,48,3.40
2013,03,21,02,49,3.40
2013,03,21,02,50,3.50
2013,03,21,02,51,3.50
2013,03,21,02,52,3.50
2013,03,21,02,53,3.50
2013,03,21,02,54,3.50
2013,03,21,02,55,3.50
2013,03,21,02,56,3.50
2013,03,21,02,57,3.40
2013,03,21,02,58,3.40
2013,03,21,02,59,3.30
2013,03,21,03,00,3.30
2013,03,21,03,01,3.30
2013,03,21,03,02,3.20
2013,03,21,03,03,3.20
2013,03,21,03,04,3.20
2013,03,21,03,05,3.10
2013,03,21,03,06,3.10
2013,03,21,03,07,3.10
2013,03,21,03,08,3.10
2013,03,21,03,09,3.00
2013,03,21,03,10,3.00
2013,03,21,03,11,3.00
2013,03,21,03,12,3.00
2013,03,21,03,13,3.00
2013,03,21,03,14,3.00
2013,03,21,03,15,3.10
2013,03,21,03,16,3.10
2013,03,21,03,17,3.10
2013,03,21,03,18,3.20
2013,03,21,03,19,3.20
2013,03,21,03,20,3.20
2013,03,21,03,21,3.20
2013,03,21,03,22,3.30
2013,03,21,03,23,3.30
2013,03,21,03,24,3.30
2013,03,21,03,25,3.30
2013,03,21,03,26,3.30
2013,03,21,03,27,3.30
2013,03,21,03,28,3.30
2013,03,21,03,29,3.30
2013,03,21,03,30,3.40
2013,03,21,03,31,3.40
2013,03,21,03,32,3.40
2013,03,21,03,33,3.50
2013,03,21,03,34,3.50
2013,03,21,03,35,3.60
2013,03,21,03,36,3.60
2013,03,21,03,37,3.60
2013,03,21,03,38,3.60
2013,03,21,03,39,3.60
2013,03,21,03,40,3.70
2013,03,21,03,41,3.70
2013,03,21,03,42,3.70
2013,03,21,03,43,3.80
2013,03,21,03,44,3.80
2013,03,21,03,45,3.80
2013,03,21,03,46,3.80
2013,03,21,03,47,3.80
2013,03,21,03,48,3.80
2013,03,21,03,49,3.80
2013,03,21,03,50,3.80
2013,03,21,03,51,3.80
2013,03,21,03,52,3.80
2013,03,21,03,53,3.80
2013,03,21,03,54,3.80
2013,03,21,03,55,3.80
2013,03,21,03,56,3.80
2013,03,21,03,57,3.90
2013,03,21,03,58,3.90
2013,03,21,03,59,3.90
2013,03,21,04,00,3.90
2013,03,21,04,01,3.90
2013,03,21,04,02,4.00
2013,03,21,04,03,4.00
2013,03,21,04,04,4.00
2013,03,21,04,05,4.10
2013,03,21,04,06,4.10
2013,03,21,04,07,4.10
2013,03,21,04,08,4.10
2013,03,21,04,09,4.10
2013,03,21,04,10,4.00
2013,03,21,04,11,4.00
2013,03,21,04,12,3.90
2013,03,21,04,13,3.90
2013,03,21,04,14,3.90
2013,03,21,04,15,3.80
2013,03,21,04,16,3.80
2013,03,21,04,17,3.80
2013,03,21,04,18,3.80
2013,03,21,04,19,3.80
2013,03,21,04,20,3.80
2013,03,21,04,21,3.80
2013,03,21,04,22,3.80
2013,03,21,04,23,3.70
2013,03,21,04,24,3.70
2013,03,21,04,25,3.70
2013,03,21,04,26,3.70
2013,03,21,04,27,3.70
2013,03,21,04,28,3.70
2013,03,21,04,29,3.70
2013,03,21,04,30,3.70
2013,03,21,04,31,3.70
2013,03,21,04,32,3.70
2013,03,21,04,33,3.60
2013,03,21,04,34,3.60
2013,03,21,04,35,3.60
2013,03,21,04,36,3.60
2013,03,21,04,37,3.60
2013,03,21,04,38,3.60
2013,03,21,04,39,3.60
2013,03,21,04,40,3.60
2013,03,21,04,41,3.60
2013,03,21,04,42,3.60
2013,03,21,04,43,3.60
2013,03,21,04,44,3.60
2013,03,21,04,45,3.60
2013,03,21,04,46,3.60
2013,03,21,04,47,3.60
2013,03,21,04,48,3.60
2013,03,21,04,49,3.60
2013,03,21,04,50,3.60
2013,03,21,04,51,3.60
2013,03,21,04,52,3.60
2013,03,21,04,53,3.50
2013,03,21,04,54,3.50
2013,03,21,04,55,3.50
2013,03,21,04,56,3.50
2013,03,21,04,57,3.50
2013,03,21,04,58,3.40
2013,03,21,04,59,3.40
2013,03,21,05,00,3.40
2013,03,21,05,01,3.40
2013,03,21,05,02,3.40
2013,03,21,05,03,3.40
2013,03,21,05,04,3.40
2013,03,21,05,05,3.40
2013,03,21,05,06,3.40
2013,03,21,05,07,3.40
2013,03,21,05,08,3.40
2013,03,21,05,09,3.40
2013,03,21,05,10,3.40
2013,03,21,05,11,3.40
2013,03,21,05,12,3.40
2013,03,21,05,13,3.40
2013,03,21,05,14,3.30
2013,03,21,05,15,3.40
2013,03,21,05,16,3.40
2013,03,21,05,17,3.40
2013,03,21,05,18,3.40
2013,03,21,05,19,3.40
2013,03,21,05,20,3.40
2013,03,21,05,21,3.50
2013,03,21,05,22,3.50
2013,03,21,05,23,3.50
2013,03,21,05,24,3.50
2013,03,21,05,25,3.50
2013,03,21,05,26,3.60
2013,03,21,05,27,3.60
2013,03,21,05,28,3.60
2013,03,21,05,29,3.60
2013,03,21,05,30,3.60
2013,03,21,05,31,3.70
2013,03,21,05,32,3.70
2013,03,21,05,33,3.70
2013,03,21,05,34,3.70
2013,03,21,05,35,3.70
2013,03,21,05,36,3.70
2013,03,21,05,37,3.70
2013,03,21,05,38,3.70
2013,03,21,05,39,3.70
2013,03,21,05,40,3.80
2013,03,21,05,41,3.80
2013,03,21,05,42,3.80
2013,03,21,05,43,3.70
2013,03,21,05,44,3.70
2013,03,21,05,45,3.70
2013,03,21,05,46,3.70
2013,03,21,05,47,3.70
2013,03,21,05,48,3.70
2013,03,21,05,49,3.70
2013,03,21,05,50,3.60
2013,03,21,05,51,3.60
2013,03,21,05,52,3.60
2013,03,21,05,53,3.60
2013,03,21,05,54,3.50
2013,03,21,05,55,3.50
2013,03,21,05,56,3.50
2013,03,21,05,57,3.50
2013,03,21,05,58,3.50
2013,03,21,05,59,3.40
2013,03,21,06,00,3.40
2013,03,21,06,01,3.40
2013,03,21,06,02,3.50
2013,03,21,06,03,3.50
2013,03,21,06,04,3.50
2013,03,21,06,05,3.50
2013,03,21,06,06,3.50
2013,03,21,06,07,3.50
2013,03,21,06,08,3.50
2013,03,21,06,09,3.50
2013,03,21,06,10,3.50
2013,03,21,06,11,3.50
2013,03,21,06,12,3.50
2013,03,21,06,13,3.50
2013,03,21,06,14,3.50
2013,03,21,06,15,3.50
2013,03,21,06,16,3.50
2013,03,21,06,17,3.50
2013,03,21,06,18,3.50
2013,03,21,06,19,3.60
2013,03,21,06,20,3.60
2013,03,21,06,21,3.60
2013,03,21,06,22,3.60
2013,03,21,06,23,3.60
2013,03,21,06,24,3.60
2013,03,21,06,25,3.60
2013,03,21,06,26,3.60
2013,03,21,06,27,3.60
2013,03,21,06,28,3.60
2013,03,21,06,29,3.60
2013,03,21,06,30,3.60
2013,03,21,06,31,3.60
2013,03,21,06,32,3.60
2013,03,21,06,33,3.60
2013,03,21,06,34,3.50
2013,03,21,06,35,3.50
2013,03,21,06,36,3.50
2013,03,21,06,37,3.50
2013,03,21,06,38,3.50
2013,03,21,06,39,3.50
2013,03,21,06,40,3.40
2013,03,21,06,41,3.40
2013,03,21,06,42,3.40
2013,03,21,06,43,3.40
2013,03,21,06,44,3.40
2013,03,21,06,45,3.40
2013,03,21,06,46,3.40
2013,03,21,06,47,3.40
2013,03,21,06,48,3.40
2013,03,21,06,49,3.40
2013,03,21,06,50,3.40
2013,03,21,06,51,3.40
2013,03,21,06,52,3.50
2013,03,21,06,53,3.50
2013,03,21,06,54,3.50
2013,03,21,06,55,3.50
2013,03,21,06,56,3.50
2013,03,21,06,57,3.50
2013,03,21,06,58,3.50
2013,03,21,06,59,3.60
2013,03,21,07,00,3.60
2013,03,21,07,01,3.60
2013,03,21,07,02,3.60
2013,03,21,07,03,3.60
2013,03,21,07,04,3.70
2013,03,21,07,05,3.70
2013,03,21,07,06,3.70
2013,03,21,07,07,3.70
2013,03,21,07,08,3.80
2013,03,21,07,09,3.80
2013,03,21,07,10,3.80
2013,03,21,07,11,3.80
2013,03,21,07,12,3.80
2013,03,21,07,13,3.80
2013,03,21,07,14,3.80
2013,03,21,07,15,3.80
2013,03,21,07,16,3.80
2013,03,21,07,17,3.80
2013,03,21,07,18,3.80
2013,03,21,07,19,3.80
2013,03,21,07,20,3.80
2013,03,21,07,21,3.90
2013,03,21,07,22,3.90
2013,03,21,07,23,3.90
2013,03,21,07,24,3.90
2013,03,21,07,25,3.90
2013,03,21,07,26,3.90
2013,03,21,07,27,3.90
2013,03,21,07,28,3.90
2013,03,21,07,29,3.90
2013,03,21,07,30,3.90
2013,03,21,07,31,3.90
2013,03,21,07,32,3.90
2013,03,21,07,33,3.90
2013,03,21,07,34,3.90
2013,03,21,07,35,3.90
2013,03,21,07,36,3.90
2013,03,21,07,37,3.90
2013,03,21,07,38,3.90
2013,03,21,07,39,3.90
2013,03,21,07,40,3.90
2013,03,21,07,41,4.00
2013,03,21,07,42,4.00
2013,03,21,07,43,4.00
2013,03,21,07,44,4.00
2013,03,21,07,45,4.00
2013,03,21,07,46,4.00
2013,03,21,07,47,4.00
2013,03,21,07,48,4.00
2013,03,21,07,49,3.90
2013,03,21,07,50,3.90
2013,03,21,07,51,3.90
2013,03,21,07,52,3.90
2013,03,21,07,53,3.90
2013,03,21,07,54,3.90
2013,03,21,07,55,3.90
2013,03,21,07,56,3.90
2013,03,21,07,57,3.90
2013,03,21,07,58,3.90
2013,03,21,07,59,3.90
2013,03,21,08,00,3.90
2013,03,21,08,01,3.90
2013,03,21,08,02,3.90
2013,03,21,08,03,3.90
2013,03,21,08,04,3.90
2013,03,21,08,05,3.90
2013,03,21,08,06,3.90
2013,03,21,08,07,4.00
2013,03,21,08,08,4.00
2013,03,21,08,09,4.00
2013,03,21,08,10,4.10
2013,03,21,08,11,4.10
2013,03,21,08,12,4.10
2013,03,21,08,13,4.10
2013,03,21,08,14,4.10
2013,03,21,08,15,4.20
2013,03,21,08,16,4.20
2013,03,21,08,17,4.20
2013,03,21,08,18,4.20
2013,03,21,08,19,4.20
2013,03,21,08,20,4.30
2013,03,21,08,21,4.30
2013,03,21,08,22,4.40
2013,03,21,08,23,4.40
2013,03,21,08,24,4.40
2013,03,21,08,25,4.40
2013,03,21,08,26,4.50
2013,03,21,08,27,4.50
2013,03,21,08,28,4.50
2013,03,21,08,29,4.60
2013,03,21,08,30,4.60
2013,03,21,08,31,4.60
2013,03,21,08,32,4.60
2013,03,21,08,33,4.60
2013,03,21,08,34,4.60
2013,03,21,08,35,4.60
2013,03,21,08,36,4.60
2013,03,21,08,37,4.60
2013,03,21,08,38,4.60
2013,03,21,08,39,4.50
2013,03,21,08,40,4.50
2013,03,21,08,41,4.50
2013,03,21,08,42,4.50
2013,03,21,08,43,4.50
2013,03,21,08,44,4.50
2013,03,21,08,45,4.50
2013,03,21,08,46,4.50
2013,03,21,08,47,4.50
2013,03,21,08,48,4.50
2013,03,21,08,49,4.40
2013,03,21,08,50,4.30
2013,03,21,08,51,4.30
2013,03,21,08,52,4.20
2013,03,21,08,53,4.10
2013,03,21,08,54,4.10
2013,03,21,08,55,4.10
2013,03,21,08,56,4.00
2013,03,21,08,57,4.00
2013,03,21,08,58,4.00
2013,03,21,08,59,3.90
2013,03,21,09,00,3.90
2013,03,21,09,01,3.90
2013,03,21,09,02,3.90
2013,03,21,09,03,3.90
2013,03,21,09,04,3.90
2013,03,21,09,05,3.90
2013,03,21,09,06,3.90
2013,03,21,09,07,3.90
2013,03,21,09,08,3.80
2013,03,21,09,09,3.80
2013,03,21,09,10,3.80
2013,03,21,09,11,3.80
2013,03,21,09,12,3.80
2013,03,21,09,13,3.90
2013,03,21,09,14,3.90
2013,03,21,09,15,3.90
2013,03,21,09,16,4.00
2013,03,21,09,17,4.10
2013,03,21,09,18,4.10
2013,03,21,09,19,4.20
2013,03,21,09,20,4.20
2013,03,21,09,21,4.30
2013,03,21,09,22,4.40
2013,03,21,09,23,4.40
2013,03,21,09,24,4.50
2013,03,21,09,25,4.60
2013,03,21,09,26,4.60
2013,03,21,09,27,4.70
2013,03,21,09,28,4.70
2013,03,21,09,29,4.70
2013,03,21,09,30,4.70
2013,03,21,09,31,4.70
2013,03,21,09,32,4.70
2013,03,21,09,33,4.70
2013,03,21,09,34,4.70
2013,03,21,09,35,4.70
2013,03,21,09,36,4.70
2013,03,21,09,37,4.70
2013,03,21,09,38,4.70
2013,03,21,09,39,4.70
2013,03,21,09,40,4.70
2013,03,21,09,41,4.80
2013,03,21,09,42,4.80
2013,03,21,09,43,4.80
2013,03,21,09,44,4.90
2013,03,21,09,45,4.90
2013,03,21,09,46,5.00
2013,03,21,09,47,5.00
2013,03,21,09,48,5.00
2013,03,21,09,49,5.00
2013,03,21,09,50,5.00
2013,03,21,09,51,4.90
2013,03,21,09,52,4.90
2013,03,21,09,53,4.80
2013,03,21,09,54,4.70
2013,03,21,09,55,4.70
2013,03,21,09,56,4.60
2013,03,21,09,57,4.60
2013,03,21,09,58,4.50
2013,03,21,09,59,4.50
2013,03,21,10,00,4.40
2013,03,21,10,01,4.40
2013,03,21,10,02,4.30
2013,03,21,10,03,4.30
2013,03,21,10,04,4.30
2013,03,21,10,05,4.40
2013,03,21,10,06,4.40
2013,03,21,10,07,4.40
2013,03,21,10,08,4.40
2013,03,21,10,09,4.40
2013,03,21,10,10,4.40
2013,03,21,10,11,4.40
2013,03,21,10,12,4.40
2013,03,21,10,13,4.50
2013,03,21,10,14,4.60
2013,03,21,10,15,4.60
2013,03,21,10,16,4.70
2013,03,21,10,17,4.80
2013,03,21,10,18,4.80
2013,03,21,10,19,4.90
2013,03,21,10,20,5.00
2013,03,21,10,21,5.00
2013,03,21,10,22,5.10
2013,03,21,10,23,5.10
2013,03,21,10,24,5.10
2013,03,21,10,25,5.10
2013,03,21,10,26,5.20
2013,03,21,10,27,5.20
2013,03,21,10,28,5.30
2013,03,21,10,29,5.30
2013,03,21,10,30,5.30
2013,03,21,10,31,5.30
2013,03,21,10,32,5.30
2013,03,21,10,33,5.30
2013,03,21,10,34,5.30
2013,03,21,10,35,5.30
2013,03,21,10,36,5.30
2013,03,21,10,37,5.30
2013,03,21,10,38,5.40
2013,03,21,10,39,5.40
2013,03,21,10,40,5.50
2013,03,21,10,41,5.50
2013,03,21,10,42,5.60
2013,03,21,10,43,5.60
2013,03,21,10,44,5.60
2013,03,21,10,45,5.60
2013,03,21,10,46,5.50
2013,03,21,10,47,5.50
2013,03,21,10,48,5.60
2013,03,21,10,49,5.60
2013,03,21,10,50,5.60
2013,03,21,10,51,5.50
2013,03,21,10,52,5.50
2013,03,21,10,53,5.50
2013,03,21,10,54,5.50
2013,03,21,10,55,5.60
2013,03,21,10,56,5.60
2013,03,21,10,57,5.60
2013,03,21,10,58,5.50
2013,03,21,10,59,5.50
2013,03,21,11,00,5.50
2013,03,21,11,01,5.60
2013,03,21,11,02,5.60
2013,03,21,11,03,5.60
2013,03,21,11,04,5.60
2013,03,21,11,05,5.60
2013,03,21,11,06,5.50
2013,03,21,11,07,5.40
2013,03,21,11,08,5.50
2013,03,21,11,09,5.50
2013,03,21,11,10,5.50
2013,03,21,11,11,5.40
2013,03,21,11,12,5.40
2013,03,21,11,13,5.30
2013,03,21,11,14,5.30
2013,03,21,11,15,5.30
2013,03,21,11,16,5.40
2013,03,21,11,17,5.40
2013,03,21,11,18,5.40
2013,03,21,11,19,5.40
2013,03,21,11,20,5.40
2013,03,21,11,21,5.40
2013,03,21,11,22,5.40
2013,03,21,11,23,5.40
2013,03,21,11,24,5.40
2013,03,21,11,25,5.50
2013,03,21,11,26,5.50
2013,03,21,11,27,5.60
2013,03,21,11,28,5.60
2013,03,21,11,29,5.60
2013,03,21,11,30,5.60
2013,03,21,11,31,5.60
2013,03,21,11,32,5.60
2013,03,21,11,33,5.60
2013,03,21,11,34,5.60
2013,03,21,11,35,5.50
2013,03,21,11,36,5.50
2013,03,21,11,37,5.40
2013,03,21,11,38,5.40
2013,03,21,11,39,5.40
2013,03,21,11,40,5.50
2013,03,21,11,41,5.50
2013,03,21,11,42,5.60
2013,03,21,11,43,5.60
2013,03,21,11,44,5.60
2013,03,21,11,45,5.50
2013,03,21,11,46,5.60
2013,03,21,11,47,5.60
2013,03,21,11,48,5.60
2013,03,21,11,49,5.60
2013,03,21,11,50,5.60
2013,03,21,11,51,5.60
2013,03,21,11,52,5.60
2013,03,21,11,53,5.60
2013,03,21,11,54,5.60
2013,03,21,11,55,5.60
2013,03,21,11,56,5.60
2013,03,21,11,57,5.70
2013,03,21,11,58,5.70
2013,03,21,11,59,5.70
2013,03,21,12,00,5.70
2013,03,21,12,01,5.70
2013,03,21,12,02,5.70
2013,03,21,12,03,5.70
2013,03,21,12,04,5.60
2013,03,21,12,05,5.60
2013,03,21,12,06,5.60
2013,03,21,12,07,5.60
2013,03,21,12,08,5.60
2013,03,21,12,09,5.50
2013,03,21,12,10,5.50
2013,03,21,12,11,5.50
2013,03,21,12,12,5.50
2013,03,21,12,13,5.60
2013,03,21,12,14,5.60
2013,03,21,12,15,5.50
2013,03,21,12,16,5.50
2013,03,21,12,17,5.50
2013,03,21,12,18,5.50
2013,03,21,12,19,5.50
2013,03,21,12,20,5.60
2013,03,21,12,21,5.70
2013,03,21,12,22,5.70
2013,03,21,12,23,5.80
2013,03,21,12,24,5.80
2013,03,21,12,25,5.90
2013,03,21,12,26,5.90
2013,03,21,12,27,5.90
2013,03,21,12,28,5.90
2013,03,21,12,29,6.00
2013,03,21,12,30,6.00
2013,03,21,12,31,6.10
2013,03,21,12,32,6.20
2013,03,21,12,33,6.20
2013,03,21,12,34,6.20
2013,03,21,12,35,6.20
2013,03,21,12,36,6.30
2013,03,21,12,37,6.30
2013,03,21,12,38,6.30
2013,03,21,12,39,6.40
2013,03,21,12,40,6.40
2013,03,21,12,41,6.40
2013,03,21,12,42,6.40
2013,03,21,12,43,6.40
2013,03,21,12,44,6.40
2013,03,21,12,45,6.40
2013,03,21,12,46,6.40
2013,03,21,12,47,6.40
2013,03,21,12,48,6.40
2013,03,21,12,49,6.40
2013,03,21,12,50,6.40
2013,03,21,12,51,6.40
2013,03,21,12,52,6.40
2013,03,21,12,53,6.40
2013,03,21,12,54,6.40
2013,03,21,12,55,6.30
2013,03,21,12,56,6.30
2013,03,21,12,57,6.30
2013,03,21,12,58,6.30
2013,03,21,12,59,6.30
2013,03,21,13,00,6.30
2013,03,21,13,01,6.30
2013,03,21,13,02,6.30
2013,03,21,13,03,6.30
2013,03,21,13,04,6.20
2013,03,21,13,05,6.20
2013,03,21,13,06,6.20
2013,03,21,13,07,6.20
2013,03,21,13,08,6.20
2013,03,21,13,09,6.10
2013,03,21,13,10,6.10
2013,03,21,13,11,6.10
2013,03,21,13,12,6.00
2013,03,21,13,13,6.00
2013,03,21,13,14,5.90
2013,03,21,13,15,5.90
2013,03,21,13,16,5.90
2013,03,21,13,17,5.90
2013,03,21,13,18,5.90
2013,03,21,13,19,5.90
2013,03,21,13,20,5.90
2013,03,21,13,21,5.90
2013,03,21,13,22,5.90
2013,03,21,13,23,5.90
2013,03,21,13,24,5.90
2013,03,21,13,25,5.90
2013,03,21,13,26,5.90
2013,03,21,13,27,5.90
2013,03,21,13,28,5.80
2013,03,21,13,29,5.80
2013,03,21,13,30,5.80
2013,03,21,13,31,5.80
2013,03,21,13,32,5.80
2013,03,21,13,33,5.90
2013,03,21,13,34,5.90
2013,03,21,13,35,5.90
2013,03,21,13,36,5.90
2013,03,21,13,37,6.00
2013,03,21,13,38,6.00
2013,03,21,13,39,6.00
2013,03,21,13,40,6.00
2013,03,21,13,41,6.00
2013,03,21,13,42,6.00
2013,03,21,13,43,6.00
2013,03,21,13,44,6.00
2013,03,21,13,45,5.90
2013,03,21,13,46,5.90
2013,03,21,13,47,5.90
2013,03,21,13,48,5.90
2013,03,21,13,49,5.90
2013,03,21,13,50,5.90
2013,03,21,13,51,6.00
2013,03,21,13,52,6.10
2013,03,21,13,53,6.10
2013,03,21,13,54,6.10
2013,03,21,13,55,6.20
2013,03,21,13,56,6.30
2013,03,21,13,57,6.30
2013,03,21,13,58,6.40
2013,03,21,13,59,6.50
2013,03,21,14,00,6.50
2013,03,21,14,01,6.50
2013,03,21,14,02,6.60
2013,03,21,14,03,6.60
2013,03,21,14,04,6.60
2013,03,21,14,05,6.70
2013,03,21,14,06,6.70
2013,03,21,14,07,6.80
2013,03,21,14,08,6.80
2013,03,21,14,09,6.90
2013,03,21,14,10,6.90
2013,03,21,14,11,6.90
2013,03,21,14,12,6.90
2013,03,21,14,13,6.90
2013,03,21,14,14,6.80
2013,03,21,14,15,6.70
2013,03,21,14,16,6.70
2013,03,21,14,17,6.70
2013,03,21,14,18,6.60
2013,03,21,14,19,6.60
2013,03,21,14,20,6.50
2013,03,21,14,21,6.50
2013,03,21,14,22,6.50
2013,03,21,14,23,6.50
2013,03,21,14,24,6.50
2013,03,21,14,25,6.50
2013,03,21,14,26,6.50
2013,03,21,14,27,6.50
2013,03,21,14,28,6.40
2013,03,21,14,29,6.40
2013,03,21,14,30,6.40
2013,03,21,14,31,6.40
2013,03,21,14,32,6.40
2013,03,21,14,33,6.40
2013,03,21,14,34,6.40
2013,03,21,14,35,6.40
2013,03,21,14,36,6.40
2013,03,21,14,37,6.40
2013,03,21,14,38,6.50
2013,03,21,14,39,6.50
2013,03,21,14,40,6.60
2013,03,21,14,41,6.70
2013,03,21,14,42,6.70
2013,03,21,14,43,6.80
2013,03,21,14,44,6.80
2013,03,21,14,45,6.90
2013,03,21,14,46,6.90
2013,03,21,14,47,6.90
2013,03,21,14,48,6.90
2013,03,21,14,49,7.00
2013,03,21,14,50,7.00
2013,03,21,14,51,7.10
2013,03,21,14,52,7.10
2013,03,21,14,53,7.10
2013,03,21,14,54,7.20
2013,03,21,14,55,7.20
2013,03,21,14,56,7.20
2013,03,21,14,57,7.20
2013,03,21,14,58,7.30
2013,03,21,14,59,7.30
2013,03,21,15,00,7.40
2013,03,21,15,01,7.40
2013,03,21,15,02,7.30
2013,03,21,15,03,7.30
2013,03,21,15,04,7.20
2013,03,21,15,05,7.20
2013,03,21,15,06,7.20
2013,03,21,15,07,7.20
2013,03,21,15,08,7.10
2013,03,21,15,09,7.10
2013,03,21,15,10,7.20
2013,03,21,15,11,7.20
2013,03,21,15,12,7.10
2013,03,21,15,13,7.10
2013,03,21,15,14,7.10
2013,03,21,15,15,7.00
2013,03,21,15,16,6.90
2013,03,21,15,17,6.90
2013,03,21,15,18,6.90
2013,03,21,15,19,6.90
2013,03,21,15,20,7.00
2013,03,21,15,21,7.00
2013,03,21,15,22,7.10
2013,03,21,15,23,7.20
2013,03,21,15,24,7.20
2013,03,21,15,25,7.30
2013,03,21,15,26,7.40
2013,03,21,15,27,7.40
2013,03,21,15,28,7.40
2013,03,21,15,29,7.30
2013,03,21,15,30,7.20
2013,03,21,15,31,7.20
2013,03,21,15,32,7.20
2013,03,21,15,33,7.20
2013,03,21,15,34,7.20
2013,03,21,15,35,7.20
2013,03,21,15,36,7.20
2013,03,21,15,37,7.20
2013,03,21,15,38,7.20
2013,03,21,15,39,7.20
2013,03,21,15,40,7.20
2013,03,21,15,41,7.20
2013,03,21,15,42,7.20
2013,03,21,15,43,7.20
2013,03,21,15,44,7.20
2013,03,21,15,45,7.20
2013,03,21,15,46,7.20
2013,03,21,15,47,7.10
2013,03,21,15,48,7.10
2013,03,21,15,49,7.10
2013,03,21,15,50,7.10
2013,03,21,15,51,7.00
2013,03,21,15,52,7.00
2013,03,21,15,53,7.00
2013,03,21,15,54,7.10
2013,03,21,15,55,7.10
2013,03,21,15,56,7.10
2013,03,21,15,57,7.10
2013,03,21,15,58,7.10
2013,03,21,15,59,7.00
2013,03,21,16,00,7.00
2013,03,21,16,01,7.00
2013,03,21,16,02,7.00
2013,03,21,16,03,7.00
2013,03,21,16,04,6.90
2013,03,21,16,05,6.90
2013,03,21,16,06,6.90
2013,03,21,16,07,6.90
2013,03,21,16,08,6.90
2013,03,21,16,09,6.90
2013,03,21,16,10,6.90
2013,03,21,16,11,6.90
2013,03,21,16,12,6.90
2013,03,21,16,13,6.90
2013,03,21,16,14,6.90
2013,03,21,16,15,6.90
2013,03,21,16,16,6.90
2013,03,21,16,17,6.90
2013,03,21,16,18,6.90
2013,03,21,16,19,6.90
2013,03,21,16,20,6.90
2013,03,21,16,21,7.00
2013,03,21,16,22,7.00
2013,03,21,16,23,7.10
2013,03,21,16,24,7.10
2013,03,21,16,25,7.20
2013,03,21,16,26,7.20
2013,03,21,16,27,7.20
2013,03,21,16,28,7.20
2013,03,21,16,29,7.20
2013,03,21,16,30,7.20
2013,03,21,16,31,7.20
2013,03,21,16,32,7.10
2013,03,21,16,33,7.10
2013,03,21,16,34,7.10
2013,03,21,16,35,7.00
2013,03,21,16,36,7.00
2013,03,21,16,37,6.90
2013,03,21,16,38,7.00
2013,03,21,16,39,7.00
2013,03,21,16,40,7.00
2013,03,21,16,41,6.90
2013,03,21,16,42,6.90
2013,03,21,16,43,6.90
2013,03,21,16,44,6.80
2013,03,21,16,45,6.80
2013,03,21,16,46,6.80
2013,03,21,16,47,6.80
2013,03,21,16,48,6.80
2013,03,21,16,49,6.80
2013,03,21,16,50,6.80
2013,03,21,16,51,6.90
2013,03,21,16,52,6.90
2013,03,21,16,53,7.00
2013,03,21,16,54,7.00
2013,03,21,16,55,7.10
2013,03,21,16,56,7.10
2013,03,21,16,57,7.10
2013,03,21,16,58,7.10
2013,03,21,16,59,7.10
2013,03,21,17,00,7.10
2013,03,21,17,01,7.00
2013,03,21,17,02,7.00
2013,03,21,17,03,6.90
2013,03,21,17,04,6.80
2013,03,21,17,05,6.80
2013,03,21,17,06,6.70
2013,03,21,17,07,6.60
2013,03,21,17,08,6.60
2013,03,21,17,09,6.60
2013,03,21,17,10,6.60
2013,03,21,17,11,6.50
2013,03,21,17,12,6.50
2013,03,21,17,13,6.50
2013,03,21,17,14,6.50
2013,03,21,17,15,6.50
2013,03,21,17,16,6.40
2013,03,21,17,17,6.40
2013,03,21,17,18,6.30
2013,03,21,17,19,6.30
2013,03,21,17,20,6.20
2013,03,21,17,21,6.20
2013,03,21,17,22,6.20
2013,03,21,17,23,6.10
2013,03,21,17,24,6.10
2013,03,21,17,25,6.00
2013,03,21,17,26,6.00
2013,03,21,17,27,5.90
2013,03,21,17,28,5.90
2013,03,21,17,29,5.80
2013,03,21,17,30,5.80
2013,03,21,17,31,5.80
2013,03,21,17,32,5.80
2013,03,21,17,33,5.80
2013,03,21,17,34,5.80
2013,03,21,17,35,5.80
2013,03,21,17,36,5.80
2013,03,21,17,37,5.90
2013,03,21,17,38,5.90
2013,03,21,17,39,5.90
2013,03,21,17,40,6.00
2013,03,21,17,41,6.00
2013,03,21,17,42,6.00
2013,03,21,17,43,6.10
2013,03,21,17,44,6.10
2013,03,21,17,45,6.10
2013,03,21,17,46,6.10
2013,03,21,17,47,6.10
2013,03,21,17,48,6.10
2013,03,21,17,49,6.10
2013,03,21,17,50,6.20
2013,03,21,17,51,6.20
2013,03,21,17,52,6.20
2013,03,21,17,53,6.20
2013,03,21,17,54,6.30
2013,03,21,17,55,6.30
2013,03,21,17,56,6.30
2013,03,21,17,57,6.30
2013,03,21,17,58,6.40
2013,03,21,17,59,6.40
2013,03,21,18,00,6.50
2013,03,21,18,01,6.50
2013,03,21,18,02,6.50
2013,03,21,18,03,6.60
2013,03,21,18,04,6.60
2013,03,21,18,05,6.50
2013,03,21,18,06,6.50